Flag for Brazil Weather past 2 weeks in Recife, Pernambuco, Brazil

Now
77 °F

Passing clouds.


Feels Like: 79 °F
Forecast: 74 / 79 °F
Wind: 8 mph from Southeast

Location: Recife Aeroporto

Current Time: Sep 18, 2014 at 4:51:01 AM

Latest Report: Sep 18, 2014 at 4:00 AM


Visibility: N/A

Pressure: 29.95 "Hg

Humidity: 79%

Dew point: 70 °F

Location of RecifeLocation

Historic Weather in Recife — Graph

°F

Recife temperature yesterday

Maximum temperature yesterday: 82 °F (at 9:00 AM)
Minimum temperature yesterday: 72 °F (at 4:00 AM)
Average temperature yesterday: 78 °F

Past Weeks' High & Low Weather Summary

 TemperatureHumidityPressure
High84 °F (Sep 3, 9:00 AM)100% (Sep 6, 7:00 AM)30.07 "Hg (Sep 6, 7:00 AM)
Low70 °F (Sep 7, 1:00 AM)61% (Sep 16, 9:00 PM)29.89 "Hg (Sep 4, 1:00 PM)
Average77 °F83%29.99 "Hg
* Reported Sep 3 3:00 AM — Sep 18 3:00 AM, Recife, Weather by CustomWeather, © 2014

Note: Actual official high and low records may vary slightly from our data, if they occured in-between our weather recording intervals... More about our weather records

Advertising

Recife weather history for previous 24 hours

 ConditionsComfort  
Time TempWeatherWind HumidityBarometerVisibility
3:00 AM
Sep 18
77 °FPassing clouds.12 mph83%29.95 "HgN/A
2:00 AM77 °FPassing clouds.9 mph83%29.95 "HgN/A
1:00 AM77 °FPassing clouds.9 mph83%29.98 "HgN/A
12:00 AM77 °FPassing clouds.9 mph83%29.98 "HgN/A
11:00 PM
Sep 17
77 °FPassing clouds.8 mph83%30.01 "HgN/A
10:00 PM77 °FPassing clouds.9 mph83%30.01 "HgN/A
9:00 PM77 °FPassing clouds.9 mph83%30.01 "HgN/A
8:00 PM77 °FPassing clouds.9 mph83%29.98 "HgN/A
7:00 PM77 °FPassing clouds.9 mph79%29.98 "HgN/A
6:00 PM79 °FClear.8 mph74%29.98 "Hg10 mi
5:00 PM79 °FPassing clouds.8 mph74%29.95 "HgN/A
4:00 PM81 °FPassing clouds.8 mph74%29.95 "HgN/A
3:00 PM81 °FScattered clouds.9 mph70%29.95 "HgN/A
2:00 PM82 °FScattered clouds.12 mph70%29.95 "HgN/A
1:00 PM82 °FScattered clouds.9 mph70%29.98 "HgN/A
12:00 PM82 °FScattered clouds.10 mph70%30.01 "HgN/A
11:00 AM82 °FScattered clouds.10 mph70%30.04 "HgN/A
10:00 AM82 °FScattered clouds.10 mph70%30.04 "HgN/A
9:00 AM82 °FBroken clouds.7 mph70%30.07 "HgN/A
8:00 AM77 °FScattered showers. Broken clouds.7 mph83%30.04 "HgN/A
7:00 AM75 °FPartly sunny.6 mph83%30.01 "HgN/A
6:00 AM72 °FPartly sunny.No wind94%29.98 "HgN/A
5:00 AM72 °FPassing clouds.6 mph88%29.98 "HgN/A
4:00 AM72 °FPassing clouds.6 mph94%29.95 "HgN/A
Weather by CustomWeather, © 2014

See weather overviewHow to use our weather pages